Regional Weather Roundup
Issued by NWS

Home | Current Version | Previous Version | Graphics & Text | Print | Product List | Glossary On
Versions: 1 2 3 4 5 6 7 8 9 10 11 12 13 14 15 16 17 18 19 20 21 22 23 24 25 26 27 28 29 30 31 32 33 34 35 36 37 38 39 40 41 42 43 44 45 46 47 48 49 50
000
ASUS43 KBIS 231902
RWRND

NORTH DAKOTA REGIONAL WEATHER ROUNDUP
NATIONAL WEATHER SERVICE BISMARCK ND
200 PM CDT THU MAR 23 2017

NOTE: "FAIR" INDICATES FEW OR NO CLOUDS BELOW 12,000 FEET WITH NO
SIGNIFICANT WEATHER AND/OR OBSTRUCTIONS TO VISIBILITY.


NDZ001>003-009>011-017-232000-
NORTHWEST NORTH DAKOTA

CITY           SKY/WX    TMP DP  RH WIND       PRES   REMARKS
WILLISTON      PTSUNNY   53  37  54 NE6       29.76S
MINOT          FAIR      47  37  68 N7        29.74R
MINOT AFB      CLOUDY    42  35  75 N8        29.74R
$$

NDZ018>021-031>035-040>046-232000-
SOUTHWEST NORTH DAKOTA

CITY           SKY/WX    TMP DP  RH WIND       PRES   REMARKS
BISMARCK       CLOUDY    42  38  85 CALM      29.74S
DICKINSON      CLOUDY    53  32  44 NE8       29.71R
GARRISON         N/A     38  31  76 CALM      29.74F
HETTINGER ARPT LGT RAIN  43  40  89 NW6       29.77R
$$

NDZ004>008-012>016-024-026-027-054-232000-
NORTHEAST NORTH DAKOTA

CITY           SKY/WX    TMP DP  RH WIND       PRES   REMARKS
GRAND FORKS    RAIN      35  35 100 S8        29.84R FOG
GRND FRKS AFB  LGT RAIN  34  34  99 S10       29.83R FOG
DEVILS LAKE    PTSUNNY   36  32  85 SW3       29.77F
$$

NDZ022-023-025-028>030-036>039-047>053-232000-
SOUTHEAST NORTH DAKOTA

CITY           SKY/WX    TMP DP  RH WIND       PRES   REMARKS
FARGO          CLOUDY    41  29  62 S17       29.84R
JAMESTOWN      LGT RAIN  39  34  82 SE3       29.77F
$$




USA.gov is the U.S. government's official web portal to all federal, state and local government web resources and services.